This demonstration page uses our WeatherBlox Daily Observations layout. Learn more.

40.92945, -100.16068

Hourly Observations for December 6, 2016

Temp ( °F °C ) Dew Point ( °F °C ) Humidity (%) Winds ( mph kmh ) Pressure ( in mb ) Visibility ( mi km ) Precip ( " mm )
12:15 am 00:15 Cloudy 27 -2.8 16 -9 63 63 NW 12 19 30.12 1020 10 16.0934 N/A
12:35 am 00:35 Mostly Cloudy 26 -3.1 16 -8.9 65 65 NW 9 15 30.12 1020 10 16.0934 N/A
12:55 am 00:55 Mostly Cloudy 26 -3.1 17 -8.6 66 66 NW 7 11 30.09 1019 10 16.0934 N/A
1:15 am 01:15 Mostly Cloudy 26 -3.3 17 -8.5 68 68 NW 7 11 30.12 1020 10 16.0934 N/A
1:35 am 01:35 Cloudy 26 -3.3 17 -8.4 68 68 NW 8 13 30.12 1020 10 16.0934 N/A
1:55 am 01:55 Mostly Cloudy 25 -4 17 -8.5 71 71 WNW 8 13 30.12 1020 10 16.0934 N/A
2:15 am 02:15 Partly Cloudy 23 -4.8 17 -8.6 75 75 WNW 7 11 30.12 1020 10 16.0934 N/A
2:35 am 02:35 Clear 24 -4.7 17 -8.5 75 75 WNW 12 19 30.12 1020 10 16.0934 N/A
2:55 am 02:55 Clear 24 -4.2 17 -8.5 72 72 WNW 14 22 30.12 1020 10 16.0934 N/A
3:15 am 03:15 Partly Cloudy 25 -4.1 16 -9 69 69 WNW 16 26 30.15 1021 10 16.0934 N/A
3:35 am 03:35 Partly Cloudy 25 -4.1 15 -9.6 66 66 NW 17 28 30.12 1020 10 16.0934 N/A
3:55 am 03:55 Partly Cloudy 23 -4.8 14 -9.9 68 68 WNW 13 20 30.15 1021 10 16.0934 N/A
4:15 am 04:15 Clear 23 -5.2 14 -10.2 68 68 WNW 14 22 30.18 1022 10 16.0934 N/A
4:35 am 04:35 Clear 22 -5.7 13 -10.3 70 70 WNW 13 20 30.18 1022 10 16.0934 N/A
4:55 am 04:55 Clear 21 -6.1 13 -10.5 71 71 WNW 12 19 30.18 1022 10 16.0934 N/A
5:15 am 05:15 Clear 21 -6.3 13 -10.7 71 71 WNW 13 20 30.18 1022 10 16.0934 N/A
5:35 am 05:35 Clear 20 -6.8 12 -11 72 72 WNW 12 19 30.18 1022 10 16.0934 N/A
5:55 am 05:55 Clear 19 -7 12 -11.1 73 73 WNW 12 19 30.18 1022 10 16.0934 N/A
6:15 am 06:15 Clear 18 -7.7 11 -11.5 74 74 WNW 8 13 30.21 1023 10 16.0934 N/A
6:35 am 06:35 Clear 18 -8 11 -11.5 76 76 WNW 8 13 30.24 1024 10 16.0934 N/A
6:55 am 06:55 Clear 17 -8.5 11 -11.8 77 77 W 6 9 30.24 1024 10 16.0934 N/A
7:15 am 07:15 Clear 17 -8.3 11 -11.9 76 76 WNW 9 15 30.24 1024 10 16.0934 N/A
7:35 am 07:35 Clear 16 -9 10 -12.3 77 77 W 6 9 30.24 1024 10 16.0934 N/A
7:55 am 07:55 Sunny 14 -10 9 -12.7 81 81 WNW 5 7 30.24 1024 10 16.0934 N/A
8:15 am 08:15 Sunny 15 -9.5 10 -12.1 82 82 W 6 9 30.24 1024 10 16.0934 N/A
8:35 am 08:35 Sunny 17 -8.3 11 -11.5 78 78 W 6 9 30.24 1024 10 16.0934 N/A
8:55 am 08:55 Sunny 19 -7 11 -11.6 70 70 WNW 6 9 30.21 1023 10 16.0934 N/A
9:15 am 09:15 Sunny 20 -6.4 12 -11.3 69 69 WNW 5 7 30.21 1023 10 16.0934 N/A
9:35 am 09:35 Sunny 23 -4.9 11 -11.4 61 61 NW 12 19 30.21 1023 10 16.0934 N/A
9:55 am 09:55 Sunny 24 -4.2 12 -11.2 59 59 WNW 14 22 30.18 1022 10 16.0934 N/A
10:15 am 10:15 Sunny 26 -3.2 11 -11.4 54 54 NW 15 24 30.18 1022 10 16.0934 N/A
10:35 am 10:35 Sunny 27 -2.7 11 -11.6 51 51 NW 13 20 30.18 1022 10 16.0934 N/A
10:55 am 10:55 Sunny 28 -2 11 -11.6 48 48 WNW 16 26 30.18 1022 10 16.0934 N/A
11:15 am 11:15 Sunny 29 -1.4 10 -12 45 45 WNW 17 28 30.15 1021 10 16.0934 N/A
11:35 am 11:35 Sunny 30 -0.9 10 -12.3 42 42 WNW 15 24 30.15 1021 10 16.0934 N/A
11:55 am 11:55 Sunny 31 -0.4 11 -11.9 42 42 WNW 13 20 30.15 1021 10 16.0934 N/A
12:15 pm 12:15 Sunny 32 0 9 -12.8 38 38 NW 14 22 30.15 1021 10 16.0934 N/A
12:55 pm 12:55 Sunny 34 1 8 -13.4 34 34 NW 16 26 30.12 1020 10 16.0934 N/A
1:15 pm 13:15 Sunny 34 1 7 -13.9 32 32 NW 18 30 30.09 1019 10 16.0934 N/A
1:35 pm 13:35 Sunny 35 1.5 6 -14.3 30 30 NW 16 26 30.09 1019 10 16.0934 N/A
1:55 pm 13:55 Sunny 35 1.9 6 -14.4 29 29 WNW 16 26 30.09 1019 10 16.0934 N/A
2:15 pm 14:15 Sunny 35 1.9 6 -14.5 29 29 WNW 16 26 30.09 1019 10 16.0934 N/A
2:35 pm 14:35 Sunny 35 1.9 6 -14.7 28 28 WNW 13 20 30.09 1019 10 16.0934 N/A
2:55 pm 14:55 Sunny 35 1.6 4 -15.3 28 28 WNW 12 19 30.09 1019 10 16.0934 N/A
3:15 pm 15:15 Sunny 35 1.7 6 -14.7 29 29 W 14 22 30.09 1019 10 16.0934 0.01 0.254
3:35 pm 15:35 Sunny 35 1.6 6 -14.7 29 29 WNW 13 20 30.09 1019 10 16.0934 0.01 0.254
3:55 pm 15:55 Sunny 35 1.5 6 -14.6 29 29 WNW 12 19 30.09 1019 10 16.0934 0.01 0.254
4:15 pm 16:15 Sunny 34 1.1 4 -15.5 28 28 NW 12 19 30.09 1019 10 16.0934 N/A
4:35 pm 16:35 Sunny 32 0.2 5 -15.1 31 31 NW 8 13 30.12 1020 10 16.0934 N/A
4:55 pm 16:55 Sunny 31 -0.6 6 -14.5 34 34 WNW 7 11 30.12 1020 10 16.0934 N/A
5:15 pm 17:15 Clear 27 -2.7 8 -13.3 44 44 WNW 7 11 30.15 1021 10 16.0934 N/A
5:35 pm 17:35 Clear 24 -4.2 8 -13.4 49 49 W 3 6 30.18 1022 10 16.0934 N/A
5:55 pm 17:55 Clear 24 -4.3 8 -13.2 50 50 W 3 6 30.18 1022 10 16.0934 0 0
6:15 pm 18:15 Clear 21 -6 9 -13 58 58 NW 6 9 30.21 1023 10 16.0934 N/A
6:35 pm 18:35 Clear 23 -5.1 9 -12.6 56 56 NW 7 11 30.21 1023 10 16.0934 N/A
6:55 pm 18:55 Partly Cloudy 24 -4.6 11 -11.8 58 58 NE 6 9 30.18 1022 10 16.0934 N/A
7:15 pm 19:15 Partly Cloudy 24 -4.6 11 -11.9 57 57 Calm 30.18 1022 10 16.0934 N/A
7:35 pm 19:35 Partly Cloudy 24 -4.6 11 -11.5 59 59 NNE 6 9 30.18 1022 10 16.0934 N/A
7:55 pm 19:55 Partly Cloudy 24 -4.7 11 -11.7 58 58 NE 6 9 30.18 1022 10 16.0934 N/A
8:15 pm 20:15 Partly Cloudy 24 -4.5 12 -11.2 60 60 ENE 3 6 30.21 1023 10 16.0934 N/A
8:35 pm 20:35 Partly Cloudy 23 -5 12 -11 63 63 ENE 5 7 30.24 1024 10 16.0934 N/A
8:55 pm 20:55 Mostly Cloudy 24 -4.7 13 -10.6 64 64 NE 3 6 30.24 1024 10 16.0934 N/A
9:15 pm 21:15 Mostly Cloudy 24 -4.3 11 -11.8 56 56 NE 6 9 30.21 1023 10 16.0934 N/A
9:35 pm 21:35 Mostly Cloudy 25 -4 9 -12.6 52 52 NNE 8 13 30.21 1023 10 16.0934 N/A
9:55 pm 21:55 Cloudy 25 -4.1 7 -13.7 48 48 NNE 9 15 30.21 1023 10 16.0934 N/A
10:15 pm 22:15 Cloudy 24 -4.2 7 -14.1 46 46 NNE 6 9 30.24 1024 10 16.0934 N/A
10:35 pm 22:35 Cloudy 24 -4.5 7 -14 48 48 NNE 6 9 30.27 1025 10 16.0934 N/A
10:55 pm 22:55 Cloudy 24 -4.6 7 -14.1 48 48 NNE 7 11 30.27 1025 10 16.0934 N/A
11:15 pm 23:15 Cloudy 23 -4.8 7 -14.1 49 49 NNE 6 9 30.27 1025 10 16.0934 N/A
11:35 pm 23:35 Cloudy 23 -5 7 -13.7 51 51 N 8 13 30.27 1025 10 16.0934 N/A
11:55 pm 23:55 Cloudy 23 -5 7 -14 50 50 N 8 13 30.27 1025 10 16.0934 N/A

Powered by AerisWeather